Waarnemingen

Advertentie
Mijn weer
Drumalbin, Groot Brittannië (3155): temperatuur & dauwpunt: 17.05.2018 00:00:00 - 23.05.2018 00:00:00 (BST)Drumalbin, Groot Brittannië (3155): temperatuur -20cm & temperatuur -100cm: 17.05.2018 00:00:00 - 23.05.2018 00:00:00 (BST)Drumalbin, Groot Brittannië (3155): windsnelheid & windstoten: 17.05.2018 00:00:00 - 23.05.2018 00:00:00 (BST)Drumalbin, Groot Brittannië (3155): windrichting: 17.05.2018 00:00:00 - 23.05.2018 00:00:00 (BST)Drumalbin, Groot Brittannië (3155): luchtdruk: 17.05.2018 00:00:00 - 23.05.2018 00:00:00 (BST)Drumalbin, Groot Brittannië (3155): zicht: 17.05.2018 00:00:00 - 23.05.2018 00:00:00 (BST)Drumalbin, Groot Brittannië (3155): neerslag: 17.05.2018 00:00:00 - 23.05.2018 00:00:00 (BST)
Datum & Tijd tt [°C] td [°C] tt -20cm [°C] tt -100cm [°C] ff [km/u] ff [kn] fx [km/u] fx [kn] dd ppp [hPa] vv [km] rr [mm]
23.05.2018 00:00:00 6,7 5,4 - - 15 8 - - O 1026,7 30 0,0
22.05.2018 23:00:00 6,7 5,3 - - 18 10 - - ONO 1026,5 35 0,0
22.05.2018 22:00:00 7,6 5,7 - - 21 11 - - ONO 1026,1 35 0,0
22.05.2018 21:00:00 8,0 6,1 - - 21 11 - - ONO 1025,6 40 0,0
22.05.2018 20:00:00 9,4 6,4 - - 24 13 - - ONO 1024,8 50 0,0
22.05.2018 19:00:00 10,3 6,5 - - 18 10 - - O 1024,7 50 0,0
22.05.2018 18:00:00 10,9 7,3 - - 28 15 - - O 1024,7 50 0,0
22.05.2018 17:00:00 10,9 7,2 - - 22 12 - - O 1024,7 50 0,0
22.05.2018 16:00:00 12,1 7,8 - - 26 14 - - O 1024,3 50 0,0
22.05.2018 15:00:00 11,2 7,4 - - 28 15 - - ONO 1024,4 45 0,0
22.05.2018 14:00:00 11,9 8,0 - - 24 13 - - O 1024,2 40 0,0
22.05.2018 13:00:00 10,5 7,4 - - 29 16 - - O 1024,5 45 0,0
22.05.2018 12:00:00 9,0 6,6 - - 28 15 - - O 1024,6 45 0,0
22.05.2018 11:00:00 8,3 6,1 - - 28 15 - - O 1024,8 40 0,0
22.05.2018 10:00:00 8,2 6,2 12,5 9,5 29 16 - - O 1024,2 50 0,0
22.05.2018 09:00:00 7,8 6,1 - - 35 19 54 29 O 1024,0 45 0,0
22.05.2018 08:00:00 7,3 5,7 - - 35 19 52 28 ONO 1024,1 40 0,0
22.05.2018 07:00:00 7,2 5,4 - - 35 19 54 29 ONO 1023,9 50 0,0
22.05.2018 06:00:00 6,8 5,6 - - 31 17 54 29 ONO 1023,2 40 0,0
22.05.2018 05:00:00 6,9 5,8 - - 35 19 48 26 O 1022,6 35 0,0
22.05.2018 04:00:00 7,0 5,9 - - 31 17 46 25 ONO 1022,9 24 0,0
22.05.2018 03:00:00 7,5 5,9 - - 29 16 - - ONO 1022,2 40 0,0
22.05.2018 02:00:00 8,0 6,6 - - 29 16 - - O 1021,4 35 0,0
22.05.2018 01:00:00 8,7 7,8 - - 29 16 - - O 1021,2 18 0,0
22.05.2018 00:00:00 9,9 9,0 - - 8 4 - - ONO 1020,9 30 0,0
21.05.2018 23:00:00 10,4 9,1 - - 4 2 - - WNW 1020,7 40 0,0
21.05.2018 22:00:00 10,5 9,1 - - 8 4 - - W 1020,9 40 0,0
21.05.2018 21:00:00 10,9 9,1 - - 13 7 - - W 1020,3 45 0,0
21.05.2018 20:00:00 10,9 8,4 - - 16 9 - - W 1020,1 50 0,0
21.05.2018 19:00:00 14,3 9,5 - - 18 10 - - W 1018,9 50 0,0
21.05.2018 18:00:00 16,6 10,9 - - 16 9 - - NW 1018,3 50 0,0
21.05.2018 17:00:00 16,2 11,4 - - 16 9 - - WNW 1018,1 40 0,0
21.05.2018 16:00:00 17,1 11,3 - - 16 9 - - NW 1018,1 40 0,0
21.05.2018 15:00:00 18,0 8,6 - - 16 9 - - ZZW 1017,9 50 0,0
21.05.2018 14:00:00 16,8 8,6 - - 16 9 - - ZZW 1018,0 50 0,0
21.05.2018 13:00:00 16,5 8,7 - - 22 12 - - ZW 1017,7 50 0,0
21.05.2018 12:00:00 16,7 8,8 - - 26 14 - - ZZW 1017,7 50 0,0
21.05.2018 11:00:00 15,9 7,7 - - 26 14 - - ZZW 1017,6 50 0,0
21.05.2018 10:00:00 15,9 7,1 12,2 9,4 28 15 - - ZZW 1017,7 50 0,0
21.05.2018 09:00:00 15,9 7,5 - - 16 9 - - Z 1017,6 50 0,0
21.05.2018 08:00:00 13,0 5,2 - - 16 9 - - Z 1017,8 50 0,0
21.05.2018 07:00:00 11,1 3,7 - - 11 6 - - Z 1018,1 50 0,0
21.05.2018 06:00:00 9,7 4,1 - - 13 7 - - Z 1018,1 50 0,0
21.05.2018 05:00:00 9,9 3,5 - - 24 13 - - ZZO 1017,9 50 0,0
21.05.2018 04:00:00 9,5 3,7 - - 16 9 - - ZZO 1017,9 50 0,0
21.05.2018 03:00:00 9,7 4,2 - - 9 5 - - ZZW 1018,3 45 0,0
21.05.2018 02:00:00 11,1 4,8 - - 26 14 - - ZZO 1018,3 50 0,0
21.05.2018 01:00:00 10,7 5,2 - - 13 7 - - Z 1018,5 45 0,0
21.05.2018 00:00:00 10,8 5,3 - - 16 9 - - Z 1018,6 45 0,0
20.05.2018 23:00:00 11,6 5,2 - - 16 9 - - Z 1018,5 50 0,0
20.05.2018 22:00:00 12,1 5,5 - - 13 7 - - ZZW 1018,7 50 0,0
20.05.2018 21:00:00 12,6 5,5 - - 18 10 - - ZZW 1018,2 50 0,0
20.05.2018 20:00:00 12,9 6,1 - - 21 11 - - ZZW 1018,1 50 0,0
20.05.2018 19:00:00 13,6 5,4 - - 18 10 - - ZZW 1018,2 50 0,0
20.05.2018 18:00:00 14,2 5,8 - - 31 17 50 27 ZZW 1018,0 45 0,0
20.05.2018 17:00:00 14,8 7,3 - - 34 18 52 28 ZZW 1018,0 40 0,0
20.05.2018 16:00:00 14,9 7,9 - - 29 16 54 29 ZZW 1018,4 45 0,0
20.05.2018 15:00:00 14,7 6,9 - - 39 21 59 32 ZZW 1018,6 40 0,0
20.05.2018 14:00:00 14,2 7,9 - - 37 20 59 32 ZZW 1018,6 30 0,0
20.05.2018 13:00:00 13,9 7,1 - - 46 25 61 33 ZZW 1018,2 35 0,0
20.05.2018 12:00:00 12,8 7,1 - - 35 19 55 30 ZZW 1018,5 30 0,0
20.05.2018 11:00:00 12,3 6,6 - - 37 20 57 31 ZZW 1018,6 30 0,0
20.05.2018 10:00:00 11,9 6,6 12,2 9,2 41 22 55 30 ZZW 1018,7 35 0,0
20.05.2018 09:00:00 11,0 6,2 - - 34 18 46 25 ZZW 1019,1 30 0,0
20.05.2018 08:00:00 10,2 6,4 - - 24 13 52 28 ZZW 1018,9 27 0,0
20.05.2018 07:00:00 10,7 5,1 - - 37 20 55 30 Z 1018,1 30 0,0
20.05.2018 06:00:00 10,3 4,8 - - 44 24 63 34 Z 1017,7 35 0,0
20.05.2018 05:00:00 10,9 4,5 - - 42 23 61 33 Z 1017,8 40 0,0
20.05.2018 04:00:00 11,0 4,7 - - 42 23 59 32 ZZW 1018,0 40 0,0
20.05.2018 03:00:00 11,0 5,2 - - 41 22 59 32 ZZW 1018,1 40 0,0
20.05.2018 02:00:00 10,9 5,6 - - 41 22 55 30 ZZW 1018,4 45 0,0
20.05.2018 01:00:00 11,0 5,5 - - 34 18 46 25 ZZW 1018,6 45 0,0
20.05.2018 00:00:00 10,7 5,1 - - 22 12 - - ZZW 1019,1 45 0,0
19.05.2018 23:00:00 10,4 4,7 - - 26 14 48 26 Z 1018,8 40 0,0
19.05.2018 22:00:00 11,3 4,3 - - 37 20 54 29 Z 1019,0 45 0,0
19.05.2018 21:00:00 11,8 4,5 - - 37 20 48 26 Z 1018,7 50 0,0
19.05.2018 20:00:00 13,1 4,9 - - 28 15 - - Z 1019,1 50 0,0
19.05.2018 19:00:00 14,5 5,2 - - 26 14 46 25 ZZW 1019,3 50 0,0
19.05.2018 18:00:00 15,3 6,0 - - 26 14 50 27 ZW 1019,7 50 0,0
19.05.2018 17:00:00 16,4 5,3 - - 31 17 48 26 Z 1019,7 50 0,0
19.05.2018 16:00:00 15,7 4,4 - - 35 19 50 27 ZZW 1020,2 50 0,0
19.05.2018 15:00:00 16,7 6,7 - - 37 20 54 29 Z 1020,2 50 0,0
19.05.2018 14:00:00 16,2 7,0 - - 31 17 - - ZZW 1020,7 50 0,0
19.05.2018 13:00:00 16,3 7,2 - - 28 15 - - ZZW 1021,0 50 0,0
19.05.2018 12:00:00 15,7 6,7 - - 28 15 - - ZZW 1021,6 50 0,0
19.05.2018 11:00:00 14,8 5,7 - - 31 17 - - Z 1022,3 50 0,0
19.05.2018 10:00:00 14,2 5,1 12,2 9,2 26 14 - - ZW 1022,7 50 0,0
19.05.2018 09:00:00 12,8 5,0 - - 18 10 - - ZZW 1023,0 50 0,0
19.05.2018 08:00:00 10,7 5,6 - - 8 4 - - ZZW 1023,5 50 0,0
19.05.2018 07:00:00 9,0 3,9 - - 13 7 - - ZW 1023,4 45 0,0
19.05.2018 06:00:00 6,6 3,2 - - 5 3 - - ZZW 1023,6 40 0,0
19.05.2018 05:00:00 4,9 3,0 - - 4 2 - - Z 1023,7 25 0,0
19.05.2018 04:00:00 6,4 5,0 - - 0 0 - - N 1023,8 29 0,0
19.05.2018 03:00:00 6,1 3,9 - - 4 2 - - WNW 1024,2 16 0,0
19.05.2018 02:00:00 8,2 6,4 - - 4 2 - - ZW 1023,8 35 0,0
19.05.2018 01:00:00 8,3 6,5 - - 5 3 - - ZO 1024,0 35 0,0
19.05.2018 00:00:00 9,0 6,4 - - 0 0 - - N 1024,1 40 0,0
18.05.2018 23:00:00 9,3 6,6 - - 8 4 - - Z 1024,1 35 0,0
18.05.2018 22:00:00 11,3 7,1 - - 4 2 - - WZW 1024,2 35 0,0
18.05.2018 21:00:00 13,2 7,7 - - 8 4 - - WNW 1023,9 45 0,0
18.05.2018 20:00:00 13,3 8,4 - - 8 4 - - WNW 1023,8 45 0,0
18.05.2018 19:00:00 13,5 8,7 - - 4 2 - - WNW 1023,6 40 0,0
18.05.2018 18:00:00 13,8 7,7 - - 9 5 - - ZZW 1023,5 40 0,0
18.05.2018 17:00:00 14,5 8,3 - - 9 5 - - WNW 1023,4 40 0,0
18.05.2018 16:00:00 15,3 8,0 - - 13 7 - - WNW 1023,4 45 0,0
18.05.2018 15:00:00 15,3 6,4 - - 5 3 - - WNW 1023,6 45 0,0
18.05.2018 14:00:00 15,3 6,3 - - 11 6 - - W 1023,8 45 0,0
18.05.2018 13:00:00 14,5 3,8 - - 13 7 - - W 1024,2 50 0,0
18.05.2018 12:00:00 14,0 2,0 - - 8 4 - - WNW 1024,3 50 0,0
18.05.2018 11:00:00 13,2 4,5 - - 11 6 - - W 1024,9 50 0,0
18.05.2018 10:00:00 12,7 6,6 12,2 9,0 15 8 - - ZZW 1025,0 35 0,0
18.05.2018 09:00:00 10,4 6,2 - - 16 9 - - ZZW 1025,6 35 0,0
18.05.2018 08:00:00 9,4 5,5 - - 13 7 - - ZW 1025,9 50 0,0
18.05.2018 07:00:00 6,2 4,7 - - 0 0 - - N 1026,1 40 0,0
18.05.2018 06:00:00 3,9 3,0 - - 5 3 - - ZO 1026,1 40 0,0
18.05.2018 05:00:00 4,3 2,8 - - 5 3 - - ZO 1026,3 40 0,0
18.05.2018 04:00:00 5,9 4,1 - - 4 2 - - ZZO 1026,4 45 0,0
18.05.2018 03:00:00 5,5 3,8 - - 4 2 - - NNW 1026,7 45 0,0
18.05.2018 02:00:00 6,4 3,5 - - 4 2 - - ZW 1026,9 50 0,0
18.05.2018 01:00:00 6,6 4,1 - - 8 4 - - WZW 1027,3 50 0,0
18.05.2018 00:00:00 8,8 4,5 - - 4 2 - - Z 1027,5 50 0,0
17.05.2018 23:00:00 9,1 4,4 - - 4 2 - - ZZW 1027,6 50 0,0
17.05.2018 22:00:00 10,1 5,2 - - 11 6 - - WZW 1027,3 50 0,0
17.05.2018 21:00:00 11,3 6,1 - - 11 6 - - ZZO 1026,9 45 0,0
17.05.2018 20:00:00 13,5 5,9 - - 15 8 - - O 1026,5 50 0,0
17.05.2018 19:00:00 14,5 4,4 - - 4 2 - - O 1026,7 50 0,0
17.05.2018 18:00:00 16,0 6,5 - - 8 4 - - OZO 1026,6 50 0,0
17.05.2018 17:00:00 15,4 4,3 - - 4 2 - - ONO 1027,3 50 0,0
17.05.2018 16:00:00 15,7 4,1 - - 4 2 - - ZO 1027,6 50 0,0
17.05.2018 15:00:00 14,2 4,1 - - 8 4 - - NO 1028,3 50 0,0
17.05.2018 14:00:00 14,6 5,4 - - 5 3 - - N 1028,7 50 0,0
17.05.2018 13:00:00 14,0 5,6 - - 4 2 - - WZW 1029,2 30 0,0
17.05.2018 12:00:00 12,6 5,7 - - 8 4 - - NNW 1029,8 50 0,0
17.05.2018 11:00:00 11,4 4,5 - - 8 4 - - NNO 1030,3 50 0,0
17.05.2018 10:00:00 10,8 4,3 12,0 8,7 2 1 - - NNO 1030,6 50 0,0
17.05.2018 09:00:00 8,8 4,3 - - 4 2 - - NNW 1030,8 40 0,0
17.05.2018 08:00:00 6,8 3,5 - - 4 2 - - O 1031,1 45 0,0
17.05.2018 07:00:00 3,8 2,6 - - 5 3 - - O 1031,5 40 0,0
17.05.2018 06:00:00 3,3 2,0 - - 2 1 - - OZO 1031,2 45 0,0
17.05.2018 05:00:00 3,5 2,0 - - 9 5 - - OZO 1031,4 45 0,0
17.05.2018 04:00:00 3,7 2,6 - - 0 0 - - N 1031,8 45 0,0
17.05.2018 03:00:00 3,9 2,5 - - 5 3 - - OZO 1031,7 45 0,0
17.05.2018 02:00:00 4,6 2,4 - - 11 6 - - O 1031,9 50 0,0
17.05.2018 01:00:00 4,7 2,5 - - 11 6 - - OZO 1032,0 40 0,0
17.05.2018 00:00:00 5,2 2,8 - - 11 6 - - OZO 1031,8 50 0,0

tt = temperatuur
td = dauwpunt
tt -20cm = temperatuur -20cm
tt -100cm = temperatuur -100cm
ff = windsnelheid
fx = windstoten
dd = windrichting
ppp = luchtdruk
vv = zicht
rr = neerslag

Weerstations in de omgeving